{"data":{"norad_id":53254,"epoch":"2026-09-20T02:32:14.589024Z","epoch_age_seconds":109435,"freshness":"FRESH","line1":"1 53254U 22086N   26263.10572441  .00004171  00000+0  14618-3 0  9995","line2":"2 53254  53.1603  35.6395 0001119  72.9836 287.1288 15.31682044230507","mean_motion":15.31682044,"eccentricity":0.0001119,"inclination_deg":53.1603,"raan_deg":35.6395,"arg_perigee_deg":72.9836,"mean_anomaly_deg":287.1288,"bstar":0.00014618,"rev_number":23050,"period_min":94.014290083301,"perigee_km":470.02712632483,"apogee_km":471.55991697557,"semimajor_km":6848.9305216502,"source":"CELESTRAK","updated_at":"2026-09-20T09:00:40.214801Z"}}